Find Starlink 32842

NORAD ID: 62822 Int'l Des: 2025-018 Owner: SPXS Country: US Constellation: starlink operational
LEOCIRCULAR

Live Position

Loading 3D Globe...

About Starlink 32842

Description loading...

Upcoming Passes

Passes for default location (London). Set your location on the main map for personalized predictions.

Altitude History

Loading altitude history...

Two-Line Element Set

1 62822U 25018S 26121.82027966 .00027801 00000-0 94676-3 0 9991
2 62822 53.1608 62.7583 0002315 88.7748 271.3518 15.30216145 71316
Epoch: May 1, 2026 • Age: 11 hours

Current Status

Altitude 493.4 km
Velocity 7.62 km/s
Sub-Earth Point -49.02°S, 46.15°E
Launch Date Jan 24, 2025
Age 1.2 years
Type internet

Technical Details

Classification Payload
Mass 730.00 kg
Dry Mass 700.00 kg
Total Mass 730.00 kg
Length 0.30 m
Diameter 4.10 m
Span 29.00 m
Shape Box + pan
Manufacturer SPXS
Bus Type Starlink V2M
Phase Status In Orbit
Owner/State SPXS/US

Most Searched